User: anonymous   Login
Location: Unspecified
(0.0000°N, 0.0000°E)
Time: 03:37:34
(UTC+00:00)
Language:

N. Korean satellite - Orbit

View from above orbital plane
View from above orbital plane
View from above satellite
View from above satellite

Ground track
Ground track

The orbit data is extracted from the following two-line orbital elements,

1 39026U 12072A   16270.21200419  .00003587  00000-0  14644-3 0  9992
2 39026  97.2436 291.0365 0042893  33.1272 327.2638 15.24186206209763
Epoch (UTC): 26 September 2016 05:05:17
Eccentricity: 0.0042893
inclination: 97.2436°
perigee height: 464 km
apogee height: 523 km
right ascension of ascending node: 291.0365°
argument of perigee: 33.1272°
revolutions per day: 15.24186206
mean anomaly at epoch: 327.2638°
orbit number at epoch: 20976

The dashed part of the orbit path shows where the satellite is in the earth's shadow,  

DLR